Regional Weather Roundup
Issued by NWS

Home | Current Version | Previous Version | Graphics & Text | Print | Product List | Glossary On
Versions: 1 2 3 4 5 6 7 8 9 10 11 12 13 14 15 16 17 18 19 20 21 22 23 24 25 26 27 28 29 30 31 32 33 34 35 36 37 38 39 40 41 42 43 44 45 46 47 48 49 50
000
ASUS43 KOAX 281510
RWRNE

WEATHER ROUNDUP FOR NEBRASKA
NATIONAL WEATHER SERVICE OMAHA NE
900 AM CST SAT FEB 28 2015

NOTES: SATELLITE DATA IS BEING USED TO AUGMENT CLOUD COVER ABOVE
       12000 FEET.
       "FAIR" INDICATES FEW OR NO CLOUDS BELOW 12,000 FEET WITH NO
       SIGNIFICANT WEATHER AND/OR OBSTRUCTIONS TO VISIBILITY.

  * THESE STATIONS DO NOT REPORT WEATHER SUCH AS RAIN...SNOW OR FOG.

NEZ001>004-019>022-054>056-281600-
NEBRASKA PANHANDLE

CITY           SKY/WX    TMP DP  RH WIND       PRES   REMARKS
SCOTTSBLUFF    SUNNY     13   5  70 N3        30.05R
ALLIANCE       SUNNY     10   6  84 SW8       30.05R WCI  -2
CHADRON        SUNNY     12   5  73 SW5       30.10R WCI   4
KIMBALL        MOSUNNY    4   0  83 CALM      29.95R
SIDNEY         SUNNY     12   7  80 S9        30.03R WCI   0
$$

NEZ057>060-069>072-079>082-281600-
SOUTHWEST NEBRASKA

CITY           SKY/WX    TMP DP  RH WIND       PRES   REMARKS
NORTH PLATTE   FLURRIES  15   8  73 S13       30.20R WCI   1
IMPERIAL         N/A     14   6  70 S13       30.14R WCI   0
LEXINGTON      CLOUDY    16  10  77 S12       30.26R WCI   3
MCCOOK         CLOUDY    17   8  67 S13       30.23R WCI   4
OGALLALA       MOSUNNY   16  11  82 S7        30.14R WCI   6
$$

NEZ005>010-023>029-035>040-094-281600-
NORTH CENTRAL NEBRASKA

CITY           SKY/WX    TMP DP  RH WIND       PRES   REMARKS
VALENTINE      SUNNY     16   7  67 SW17G25   30.16R WCI   0
AINSWORTH      SUNNY     14   8  77 S17       30.18R WCI  -2
BROKEN BOW     CLOUDY    15   9  76 S12       30.24R WCI   2
O`NEILL        SUNNY     15   8  76 S12       30.28S WCI   1
ORD            CLOUDY    12   6  77 SE6       30.30R WCI   3
THEDFORD       FLURRIES  16  10  79 S15       30.17R WCI   1
$$

NEZ041-046>049-061>064-073>077-083>087-281600-
SOUTH CENTRAL NEBRASKA

CITY           SKY/WX    TMP DP  RH WIND       PRES   REMARKS
GRAND ISLAND   CLOUDY    11   8  88 S10       30.37R WCI  -3
AURORA         CLOUDY    13   9  84 S12       30.37R WCI  -1
HASTINGS       CLOUDY    12   9  87 S8        30.34R WCI   0
HEBRON         LGT SNOW  15  10  82 S9        30.43R WCI   3
HOLDREGE       LGT SNOW  13   9  83 S12       30.29S WCI  -1
KEARNEY *      CLOUDY    12   7  79 S15       30.31R WCI  -4
YORK           PTSUNNY   14  10  85 S10       30.39S WCI   1
$$

NEZ011>018-030>034-042>045-281600-
NORTHEAST NEBRASKA

CITY           SKY/WX    TMP DP  RH WIND       PRES   REMARKS
NORFOLK        MOSUNNY   14   8  77 S16       30.38R WCI  -2
ALBION         PTSUNNY   13   8  82 S14       30.36R WCI  -2
BLAIR          SUNNY     15   7  71 S14       30.45R WCI   0
COLUMBUS *     SUNNY     14   3  62 S13       30.42S WCI   0
FREMONT        SUNNY     16   7  66 S13G18    30.45R WCI   2
WAYNE          SUNNY     12   6  78 S14       30.41R WCI  -4
$$

NEZ050>053-065>068-078-088>093-281600-
SOUTHEAST NEBRASKA

CITY           SKY/WX    TMP DP  RH WIND       PRES   REMARKS
LINCOLN        PTSUNNY   13   6  74 S10       30.46S WCI   0
OMAHA EPPLEY   MOSUNNY   13   5  70 S13       30.51R WCI  -2
BEATRICE       CLOUDY    15   9  76 S6        30.44S WCI   6
FALLS CITY     MOSUNNY   18   8  65 SE9       30.49S WCI   7
NEBRASKA CITY  SUNNY     14   6  70 SE8       30.48R WCI   2
PLATTSMOUTH    SUNNY     13   6  73 S9        30.48R WCI   1
$$

NEZ044-045-051>053-067-281600-
OMAHA AREA

CITY           SKY/WX    TMP DP  RH WIND       PRES   REMARKS
OMAHA EPPLEY   MOSUNNY   13   5  70 S13       30.51R WCI  -2
BLAIR          SUNNY     15   7  71 S14       30.45R WCI   0
FREMONT        SUNNY     16   7  66 S13G18    30.45R WCI   2
MILLARD        SUNNY     16   7  69 S8        30.49R WCI   5
OFFUTT AFB     SUNNY     13   6  75 SE7       30.49R WCI   2
PLATTSMOUTH    SUNNY     13   6  73 S9        30.48R WCI   1
WAHOO          FAIR      14   6  70 S10       30.46R WCI   1
$$



USA.gov is the U.S. government's official web portal to all federal, state and local government web resources and services.